Terminal Aerodrome Forecast
Issued by NWS Pittsburgh, PA

Current Version | Previous Version | Graphics & Text | Print | Product List | Glossary On
Versions: 1 2 3 4 5 6 7 8 9 10 11 12 13 14 15 16 17 18 19 20 21 22 23 24 25 26 27 28 29 30 31 32
000
FTUS41 KPBZ 251600 AAC
TAFPIT
TAF AMD
KPIT 251625Z 2516/2618 23005KT 3SM -SHSN BR OVC009
      TEMPO 2517/2518 1SM -SHSN OVC004
     FM252000 VRB03KT 2SM -SN OVC007
     FM252300 03005KT 3/4SM -SN OVC004
     FM261000 04010KT 1SM -SN BR OVC007=

USA.gov is the U.S. government's official web portal to all federal, state and local government web resources and services.